Location: Aranbee
(34.0885°N, 118.2342°W)
Time: 07:54:34
(UTC+00:00)

Courier 1B Rocket - Pass Details

Date: 03 December 2020
Orbit: 920 x 1202 km, 28.2° (Epoch: 27 January)

Event Time Altitude Azimuth Distance (km) Brightness Sun altitude
Rises 14:17:53 0° 265° (W) 4,079 - -5.5°
Exits shadow 14:18:14 - 265° (W) 3,964 7.6 -5.4°
Reaches altitude 10° 14:20:48 10° 261° (W) 3,126 7.1 -4.9°
Maximum altitude 14:28:23 54° 187° (S) 1,415 6.0 -3.5°
Drops below altitude 10° 14:35:50 10° 112° (ESE) 3,071 9.8 -2.1°
Sets 14:38:39 0° 108° (ESE) 4,002 10.8 -1.6°
